This is the latest recevied weather packets stored in our database for station/object DW9280. If no packets are shown the sender has not sent any weather packets the latest 10 day(s).
| Time | Temp. | Humidity | Pressure | Rain* | Wind** | Luminosity | Snow |
|---|---|---|---|---|---|---|---|
| 1777659274 | 21.67° C | 34% | 1020.7 hPa | 0 mm | - | 23 W/m² | - |
| 1777659079 | 22.22° C | 33% | 1020.8 hPa | 0 mm | - | 25 W/m² | - |
| 1777658667 | 22.22° C | 32% | 1020.7 hPa | 0 mm | - | 26 W/m² | - |
| 1777658477 | 22.22° C | 32% | 1020.7 hPa | 0 mm | - | 28 W/m² | - |
| 1777658050 | 22.22° C | 31% | 1020.7 hPa | 0 mm | - | 28 W/m² | - |
| 1777657748 | 22.78° C | 31% | 1020.6 hPa | 0 mm | - | 30 W/m² | - |
| 1777657576 | 22.78° C | 31% | 1020.7 hPa | 0 mm | - | 32 W/m² | - |
| 1777657271 | 22.78° C | 30% | 1020.7 hPa | 0 mm | - | 32 W/m² | - |
| 1777656850 | 22.78° C | 29% | 1020.7 hPa | 0 mm | - | 33 W/m² | - |
| 1777656549 | 22.78° C | 29% | 1020.7 hPa | 0 mm | - | 70 W/m² | - |
| 1777656246 | 23.33° C | 30% | 1020.8 hPa | 0 mm | - | 151 W/m² | - |
| 1777655948 | 23.33° C | 30% | 1020.8 hPa | 0 mm | - | 167 W/m² | - |
| 1777655650 | 23.33° C | 30% | 1020.8 hPa | 0 mm | - | 185 W/m² | - |
| 1777655347 | 23.33° C | 29% | 1020.9 hPa | 0 mm | - | 202 W/m² | - |
| 1777655049 | 23.33° C | 29% | 1020.8 hPa | 0 mm | - | 214 W/m² | - |
| 1777654750 | 23.33° C | 30% | 1020.9 hPa | 0 mm | - | 230 W/m² | - |
| 1777654570 | 23.33° C | 29% | 1020.8 hPa | 0 mm | - | 248 W/m² | - |
| 1777654148 | 23.33° C | 29% | 1020.9 hPa | 0 mm | - | 260 W/m² | - |
| 1777653848 | 23.89° C | 29% | 1020.9 hPa | 0 mm | - | 276 W/m² | - |
| 1777653547 | 23.89° C | 28% | 1021 hPa | 0 mm | - | 288 W/m² | - |
| 1777653250 | 23.89° C | 28% | 1020.9 hPa | 0 mm | - | 302 W/m² | - |
| 1777653072 | 23.89° C | 28% | 1021.1 hPa | 0 mm | - | 315 W/m² | - |
| 1777652773 | 23.89° C | 28% | 1021.1 hPa | 0 mm | - | 329 W/m² | - |
| 1777652351 | 23.89° C | 28% | 1021.1 hPa | 0 mm | - | 341 W/m² | - |
| 1777652050 | 24.44° C | 28% | 1021.1 hPa | 0 mm | - | 353 W/m² | - |
* Rain latest hour (hover to see other rain measurements)
** Current wind speed in m/s (hover to see current wind gust speed)